Location: *
(17.3280°S, 114.7300°W)
Time: 07:13:43
(UTC+00:00)

ASTEX 1 - Pass Details

Date: 05 August 2020
Orbit: 721 x 743 km, 92.7° (Epoch: 20 September)

Event Time Altitude Azimuth Distance (km) Brightness Sun altitude
Rises 13:03:51 0° 354° (N) 3,119 6.8 -14.4°
Reaches altitude 10° 13:06:11 10° 348° (NNW) 2,207 5.9 -13.9°
Maximum altitude 13:10:51 46° 275° (W) 976 3.6 -12.8°
Drops below altitude 10° 13:15:36 10° 202° (SSW) 2,241 5.6 -11.7°
Sets 13:18:00 0° 195° (SSW) 3,173 6.4 -11.1°
